STARLINK-3396, 51129

Orbit data source: Space-Track

STARLINK-3396, 51129 is a payload satellite owned by SpaceX/Seattle (US) in LEO that was launched on Wed, 19 Jan 2022 UTC via an FALCON 9 launch vehicle from the Air Force Eastern Test Range (AFETR). Payload-class satellites include a variety of spacecraft equipped with specific instruments for various scientific and technological missions. These include communications satellites like Starlink; space stations such as the ISS; scientific satellites like the Hubble; Earth observation satellites from companies like Planet Labs, Umbra, and HawkEye 360; GPS; miniature CubeSats for education and research; and military/defense satellites.

Loading next visibility...
Identifier
51129, 2022-005AB
Orbit
LEO
Country
Flag of USUS
Related business
Manufacturer
SpaceX/Seattle
Mission
Operational Commercial Communications
Bus & Motor
STARLINK, Unknown motor
Mass
297 kg wet, ~275 kg dry
Launch date (UTC)
2022-01-19 (4 years ago)
Launch vehicle
FALCON 9
Launch site
Air Force Eastern Test Range (AFETR)
Object type
Payload
Rocket body
Debris
Shape & HBR
Box + 1 Pan, 10.1 m
Radar Cross Section
13.562 m², Large (>1 m²)

Expand to show TLE details & history
Last TLE update: 11 hours ago

TLE from 11 hours ago
0 STARLINK-3396
1 51129U 22005AB  26094.26407963 -.00003396  00000-0 -19549-3 0  9999
2 51129  53.2164 184.3146 0001350  98.9280 261.1866 15.08824447232597
Epoch: 2026-04-04T06:20Z
TLE epoch observation values (Epoch: 2026-04-04T06:20:16.480Z)
Latitude
0.00008°
Longitude
-103.34036°
Altitude
540.831 km
Speed
7.593 km/s
True Right ascension
12h 17m 15s
True Declination
0° 00' 00"
Sunlit
Object was in full shadow at epoch
Visualization orbit readout
Latitude
Unknown
Longitude
Unknown
Altitude
Unknown
Speed
Unknown
Apparent Right ascension
Unknown
Apparent Declination
Unknown
Sunlit
N/A
Visualization observer readout
Local Sidereal Time
22:49:03
Azimuth
Unknown
Elevation
Unknown
Doppler factor
Unknown
Orbital elements
Apogee altitude
540.97 km
Perigee altitude
539.102 km
Semi-major axis
6,918.173 km
Eccentricity
0.00014
Inclination
53.2164°
RAAN
184.3146°
Arg. of periapsis
98.928°
True anomaly
261.17131°
Mean anomaly
261.1866°
Eccentric anomaly
261.17896°
Mean motion
3.77186 °/min
Orbital period
95.44 mins
BSTAR
-0.00019549
Loading maneuver chart data...
Computing Atmospheric mass density...
Loading historical data...
Loading historical data...
Loading historical data...
Loading historical data...
Loading historical data...
Loading historical data...
Loading historical data...

Documentation

Showing up to 5 results
|